EHI
0 0 0 0 0 0 0 0 0 0 0 0 0 0 1 2 4 6 9 13 16 17 20 21 23 32 44 55 61 61 58 53 49 45 44 43 41 39 38 39 40 37 33 31
0 0 0 0 0 0 0 0 0 0 0 0 0 0 1 3 4 6 9 13 16 20 25 28 27 32 42 51 56 59 58 55 50 44 42 41 40 38 38 39 40 36 31 29
0 0 0 0 0 0 0 0 0 0 0 0 0 1 3 4 5 6 9 12 16 23 31 34 32 33 37 44 50 56 59 58 52 45 40 40 39 38 38 40 38 33 29 27
0 0 0 0 0 0 0 0 0 0 0 0 0 1 4 5 5 6 8 10 15 23 33 36 36 35 34 38 45 54 59 59 55 48 43 41 39 38 38 39 36 31 28 27
0 0 0 0 0 0 0 0 0 0 0 0 0 1 3 3 4 5 7 9 14 22 30 35 37 36 34 37 43 51 57 60 58 52 46 43 40 39 39 39 35 31 29 28
0 0 0 0 0 0 0 0 0 0 0 0 0 1 2 2 3 4 7 10 15 21 27 31 33 35 37 39 43 49 56 59 58 53 47 44 42 42 42 40 36 32 30 30
0 0 0 0 0 0 0 0 0 0 0 0 0 1 1 2 3 5 7 11 15 19 24 28 30 34 38 41 44 49 53 56 54 50 47 45 45 43 42 40 37 33 30 29
0 0 0 0 0 0 0 0 0 0 0 0 0 1 1 2 4 5 7 10 13 17 22 27 32 36 38 40 44 47 50 53 52 48 45 45 45 41 37 36 34 31 27 25
0 0 0 0 0 0 0 0 0 0 0 0 0 1 2 3 4 5 6 7 9 14 19 25 31 36 38 40 42 43 46 49 49 46 43 41 41 39 34 32 31 28 25 22
0 0 0 0 0 0 0 0 0 0 0 0 0 1 2 4 4 5 5 5 7 10 15 20 26 33 37 38 37 37 40 43 44 43 39 35 35 37 36 33 29 27 25 23
0 0 0 0 0 0 0 0 0 0 0 0 0 1 2 5 5 5 6 6 6 9 13 16 22 28 33 33 32 33 36 38 39 39 36 33 32 34 36 34 29 26 25 24
0 0 0 0 0 0 0 0 0 0 0 0 0 1 3 5 6 7 8 8 7 10 13 15 20 24 26 29 30 31 33 34 35 37 36 35 34 33 33 32 30 27 24 23
0 0 0 0 0 0 0 0 0 0 0 0 0 1 3 5 7 8 10 10 10 13 15 18 22 24 24 26 29 30 31 31 32 35 37 38 36 32 31 31 29 27 24 21
0 0 0 0 0 0 0 0 0 0 0 0 0 0 2 6 8 10 12 12 13 17 20 22 25 27 28 28 29 30 31 31 31 32 34 35 33 30 29 28 26 24 21 19
1 1 0 0 0 0 0 0 0 0 0 0 0 0 3 7 10 13 13 13 13 16 19 20 25 31 33 32 29 29 31 31 30 29 28 28 29 27 24 21 20 18 16 15
2 1 1 0 0 0 0 0 0 0 0 1 2 3 6 10 14 16 16 14 14 16 17 20 26 32 35 34 30 30 32 31 29 26 24 24 25 22 17 14 15 14 13 13
1 1 1 1 0 0 0 0 0 0 0 2 5 7 10 14 18 20 19 17 16 18 20 22 27 32 34 35 34 33 32 30 27 25 23 22 20 15 11 10 12 14 13 12
1 1 1 1 0 0 0 1 2 1 1 3 6 8 11 15 17 18 18 16 15 18 22 24 28 31 34 36 35 32 30 28 26 23 20 18 16 13 10 10 12 15 13 9
2 1 1 0 0 0 1 2 4 4 3 3 5 8 11 13 13 13 12 11 12 17 23 25 28 30 33 35 34 30 28 26 23 19 16 15 14 13 12 12 14 14 12 9
1 1 0 0 0 0 1 2 3 4 3 2 5 8 11 11 10 11 10 10 13 19 24 26 27 28 30 30 29 28 27 25 22 19 17 17 16 15 14 15 15 14 11 9
0 0 0 0 0 0 1 2 4 5 4 3 5 10 13 12 11 12 12 12 15 21 25 25 25 25 26 25 24 25 25 24 22 21 20 20 19 16 14 15 15 12 9 8
0 0 0 0 0 0 1 3 6 10 10 7 8 11 13 12 11 11 12 13 15 19 22 24 24 23 22 22 20 20 21 21 20 20 21 20 19 16 13 14 13 10 8 6
0 0 1 1 0 0 2 3 7 11 11 10 11 11 12 12 10 10 12 13 15 17 18 20 21 20 19 19 18 18 18 19 18 19 20 19 17 15 14 13 12 9 7 6
1 1 2 1 0 0 1 3 5 7 8 10 11 11 12 12 11 10 12 15 18 17 15 15 17 17 16 16 16 17 18 19 18 18 18 18 17 16 15 13 10 8 6 5
3 3 2 1 0 0 0 2 3 4 5 7 7 8 10 11 10 10 13 16 17 15 13 13 15 14 13 13 14 15 16 18 17 16 16 15 14 13 12 9 7 6 4 3
3 4 3 2 1 0 1 2 3 3 3 4 5 5 7 8 8 10 13 16 15 12 11 12 13 13 12 12 12 12 14 16 16 15 13 12 11 11 9 6 4 3 2 1
Wind_Speed
15 14 14 14 16 17 17 17 16 13 10 11 12 12 8 8 8 7 7 7 8 9 9 8 9 9 9 8 8 8 7 6 5 4 4 4 4 4 3 3 5 5 4 4
15 18 18 17 17 17 17 17 17 14 11 10 12 13 9 9 8 6 6 7 8 8 9 9 9 9 9 9 8 8 7 7 6 4 3 3 3 3 3 3 4 5 5 4
19 16 16 17 18 17 16 15 16 15 13 13 13 14 10 8 8 7 7 7 7 9 10 9 8 8 8 8 8 8 8 8 7 5 3 3 2 2 3 4 4 5 4 4
18 18 16 15 15 16 15 15 15 15 14 12 11 11 9 7 8 8 8 7 7 6 8 9 10 8 8 7 7 7 7 8 7 6 5 6 5 4 4 3 4 5 5 5
16 16 16 16 14 14 16 14 13 15 15 14 12 11 9 6 5 6 6 6 6 6 7 7 8 9 8 7 6 6 7 7 7 7 6 5 5 4 3 3 4 5 5 5
19 17 16 15 14 14 15 15 15 15 13 15 11 11 9 5 4 4 6 6 5 6 7 7 7 8 7 7 6 5 6 6 7 7 7 6 6 5 4 4 4 4 4 4
18 17 15 14 15 14 15 12 10 11 11 11 8 9 6 3 1 1 2 4 6 5 5 6 7 7 7 7 6 6 5 5 5 5 6 6 6 6 5 5 4 4 3 3
15 14 13 13 13 13 13 14 12 11 10 10 9 9 5 4 1 2 2 5 4 4 4 5 6 6 7 7 6 6 5 5 5 5 5 4 5 4 4 4 3 3 2 3
12 12 10 10 11 13 14 14 13 13 15 14 9 7 5 1 2 1 2 2 4 4 4 4 5 6 6 6 6 5 5 4 4 4 5 5 5 4 3 3 3 3 2 2
12 14 13 11 11 13 14 14 10 11 12 13 11 9 4 1 2 3 2 1 3 5 4 4 4 5 5 6 5 5 5 4 4 4 4 4 4 3 3 3 3 2 2 1
11 12 13 12 12 14 13 14 11 9 10 11 11 6 2 3 1 1 2 2 3 4 4 4 4 5 5 5 5 5 4 4 3 4 4 3 4 4 3 2 3 2 2 2
7 8 11 14 14 15 14 12 11 10 11 11 11 5 3 3 1 2 1 3 4 4 3 4 4 4 4 4 4 4 4 4 3 3 3 3 3 3 3 3 2 2 2 2
6 6 10 12 10 11 12 12 11 10 9 10 11 5 2 1 1 2 2 3 3 3 3 3 3 3 3 3 4 4 3 3 3 2 2 2 2 2 2 2 2 2 2 2
5 9 12 14 12 11 13 14 12 10 8 10 10 7 5 3 1 1 1 3 2 3 3 3 3 3 2 3 3 3 3 2 2 2 2 2 2 2 2 2 2 2 2 3
7 11 14 16 16 15 16 15 13 11 11 11 9 7 5 3 2 1 1 2 2 2 3 2 2 2 3 2 2 2 2 2 2 2 2 1 2 2 2 2 2 2 2 3
5 9 13 15 15 15 15 15 13 12 10 9 8 6 3 1 1 1 2 2 1 2 2 2 2 2 3 2 1 1 2 2 2 2 1 1 2 2 2 3 3 2 2 2
6 7 11 13 14 14 14 11 10 9 8 8 6 4 2 3 2 3 3 3 3 2 2 2 2 2 2 1 1 1 2 2 2 2 2 2 2 2 3 3 3 2 2 2
9 9 8 11 12 15 6 6 7 7 5 5 3 2 2 2 2 4 5 5 3 2 3 3 2 2 1 2 2 1 2 2 2 2 2 3 3 3 2 2 2 2 2 2
10 9 8 8 11 11 7 6 7 7 4 4 4 2 2 3 2 3 3 3 2 3 3 2 2 2 1 1 1 1 1 2 2 3 3 3 3 3 2 2 2 2 2 3
8 8 8 9 11 9 6 9 9 7 5 3 4 3 2 1 1 1 3 3 2 3 3 3 2 2 2 1 1 1 1 1 2 2 2 2 2 2 3 3 3 2 3 4
4 6 9 10 10 5 7 11 9 5 3 6 3 1 2 2 2 1 2 2 2 3 2 2 2 1 1 1 0 0 0 1 1 1 1 1 1 1 2 2 2 2 3 4
4 4 6 7 8 5 8 8 5 4 5 4 3 2 3 4 3 2 2 1 1 2 2 2 1 1 2 1 1 1 1 2 1 1 1 0 1 2 2 1 2 3 3 4
2 2 3 3 3 3 5 4 3 3 4 4 3 3 2 2 1 1 1 1 1 2 2 2 1 1 2 2 1 1 1 2 2 1 1 1 1 2 1 2 3 3 3 3
3 2 2 3 4 4 5 6 6 5 4 4 3 2 1 1 1 2 2 2 2 2 2 2 2 2 2 2 2 1 1 1 1 2 1 1 2 2 1 1 2 2 2 2
6 5 4 4 5 4 5 6 6 6 4 3 3 2 2 1 2 2 2 2 2 2 2 2 2 1 1 2 3 3 3 2 2 2 1 2 3 2 2 2 1 1 1 1
5 5 4 4 5 5 6 6 6 6 4 4 4 3 2 2 2 2 1 2 2 2 2 2 2 1 1 1 2 3 3 3 2 2 2 2 2 2 2 1 1 1 1 1
Wind_Direction
228 230 236 243 244 255 270 279 284 282 271 272 268 266 243 228 223 215 200 192 187 182 175 165 166 158 151 150 157 164 167 160 159 173 180 187 192 191 191 186 167 168 185 194
235 234 241 248 255 258 264 273 278 280 274 274 272 269 250 224 224 214 205 195 188 177 171 167 165 163 158 163 168 168 169 162 170 184 185 190 187 187 182 176 155 172 186 197
241 247 244 247 254 259 262 265 275 283 287 276 270 270 254 221 201 207 206 202 199 185 173 161 166 163 160 168 175 175 169 167 175 176 180 193 174 180 181 171 168 177 184 194
249 253 253 254 257 263 264 268 274 282 279 276 275 272 260 231 198 203 205 201 190 185 163 161 165 163 166 169 170 165 166 169 172 175 187 193 193 195 191 179 172 173 186 191
256 256 257 258 258 265 272 279 280 276 273 270 265 266 267 235 208 208 198 187 181 177 163 162 164 157 166 159 159 167 166 169 168 179 190 196 202 198 184 176 167 177 187 193
262 264 262 262 264 264 271 276 274 269 266 259 256 260 262 254 226 203 184 172 163 162 157 154 157 156 159 153 152 146 153 167 174 185 190 196 199 195 190 184 181 186 186 190
255 254 253 253 256 259 263 266 264 261 258 263 273 259 257 266 238 104 129 151 145 147 149 146 156 161 155 148 143 138 141 155 171 184 192 196 198 198 196 191 188 188 190 190
256 254 246 245 250 261 259 258 259 271 275 275 259 247 235 232 114 94 116 121 123 138 139 148 153 146 147 143 137 139 149 157 168 178 183 182 187 196 191 187 186 189 199 197
271 270 266 262 259 256 260 257 263 267 270 275 270 262 244 161 72 72 43 88 118 133 136 149 144 142 142 141 138 149 154 158 170 183 180 178 178 184 178 169 182 183 201 201
278 284 280 277 269 254 256 264 264 263 269 273 269 260 254 206 204 167 157 150 123 125 141 147 140 136 142 136 135 147 155 168 175 176 181 183 170 175 183 181 183 174 173 195
279 277 276 273 263 268 264 261 261 265 265 273 275 267 315 62 310 227 135 129 121 128 135 133 125 132 138 138 145 148 151 161 169 175 175 168 163 170 178 178 190 189 182 188
289 286 277 273 273 278 268 262 260 263 266 267 272 267 8 75 17 5 96 110 97 101 127 134 127 129 134 143 147 149 157 168 172 177 167 161 156 162 180 190 187 184 188 198
310 287 279 269 263 269 267 264 263 264 267 266 266 253 297 68 24 3 52 83 89 93 99 115 113 120 134 142 142 150 158 163 168 171 162 151 160 171 186 198 203 202 200 201
280 268 266 271 278 280 277 278 274 267 265 267 263 260 273 283 9 54 86 100 107 93 83 77 90 100 107 107 121 147 159 155 161 154 156 159 179 185 198 209 206 205 207 215
269 266 267 272 274 275 278 276 268 258 259 266 267 264 269 279 293 246 69 97 106 93 85 78 67 83 91 93 106 133 146 144 145 139 147 174 191 188 194 204 202 208 214 220
271 279 280 275 271 272 275 271 266 259 257 259 260 260 296 336 354 44 56 32 58 93 88 85 66 71 83 83 120 129 127 131 131 146 173 182 186 186 193 198 199 208 214 220
276 282 280 274 278 277 261 270 265 263 265 263 264 277 299 329 11 62 61 43 30 39 60 66 64 52 86 92 52 101 115 130 152 167 182 177 184 197 205 213 200 202 213 234
251 264 271 276 281 267 260 275 275 267 278 293 285 294 327 22 28 69 69 43 5 13 59 56 50 51 67 90 91 99 123 151 174 181 192 189 191 195 207 211 198 210 230 242
228 236 255 267 268 263 276 292 290 272 260 311 324 351 32 31 46 89 60 61 349 10 53 57 41 31 47 85 98 129 173 181 192 200 202 203 203 195 207 212 202 216 228 239
215 218 240 257 266 267 298 318 307 273 233 328 336 347 352 12 327 327 12 18 37 53 56 55 47 39 31 51 125 186 201 206 219 223 218 217 210 207 222 219 208 221 235 244
234 233 239 252 259 262 328 335 322 275 308 336 337 26 338 318 336 347 353 9 45 53 59 70 79 62 32 22 107 120 23 318 307 287 248 232 215 234 231 219 215 233 243 251
279 262 256 260 258 265 351 346 351 340 334 323 354 25 22 25 34 23 29 16 55 67 60 68 79 65 46 29 70 50 7 341 336 321 298 263 231 253 234 213 231 244 251 255
287 311 309 295 282 349 346 345 354 1 341 358 18 27 39 28 356 358 45 27 66 67 55 54 68 75 50 31 35 34 3 349 341 340 326 302 271 270 251 236 244 247 242 259
296 332 300 305 301 331 334 351 5 1 357 352 357 359 19 14 359 23 62 59 64 66 57 48 53 63 36 16 18 15 358 350 344 326 311 286 267 263 254 254 262 262 262 266
321 322 295 271 284 304 339 344 352 342 335 341 351 11 34 23 7 5 69 78 78 74 59 44 31 40 28 10 11 6 10 353 322 305 293 276 269 263 245 240 272 275 274 244
315 314 313 315 325 319 324 336 338 328 345 359 4 24 38 25 15 27 73 78 79 73 57 40 16 13 31 28 12 14 12 353 325 305 294 289 287 283 272 250 275 334 260 214